Showing default

STARONE D1, 41904

Orbit data source: Space-Track

STARONE D1, 41904 is a payload satellite owned by Star One (BR) in GEO that was launched on Wed, 21 Dec 2016 UTC via an ARIANE 5ECA launch vehicle from the French Guiana (FRGUI). Payload-class satellites include a variety of spacecraft equipped with specific instruments for various scientific and technological missions. These include communications satellites like Starlink; space stations such as the ISS; scientific satellites like the Hubble; Earth observation satellites from companies like Planet Labs, Umbra, and HawkEye 360; GPS; miniature CubeSats for education and research; and military/defense satellites.

Loading next visibility...
Identifier
41904, 2016-082B
Orbit
GEO
Country
Flag of BRBR / BRAZ
Related business
Manufacturer
SS/Loral (MDA)
Mission
Operational Commercial Communications
Bus & Motor
LS-1300, R-4D
Mass
6,433 kg wet, ~3,500 kg dry
Launch date (UTC)
2016-12-21 (10 years ago)
Launch vehicle
ARIANE 5ECA
Launch site
French Guiana (FRGUI)
Object type
Payload
Rocket body
Debris
Shape & HBR
Box + 2 Pan, 13.5 m
Radar Cross Section
28.284 m², Large (>1 m²)

Expand to show TLE details & history
Last TLE update: 2 days ago

TLE from 2 days ago
0 STARONE D1
1 41904U 16082B   26171.37534374  .00000000  00000-0  00000+0 0  9997
2 41904   0.0424  55.6663 0002639  60.2000 203.8669  1.00266641 34804
Epoch: 2026-06-20T09:00Z
TLE epoch observation values (Epoch: 2026-06-20T09:00:29.699Z)
Latitude
-0.05319°
Longitude
-83.98144°
Altitude
35,797.721 km
Speed
3.074 km/s
True Right ascension
21h 18m 55s
True Declination
0° 03' 11"
Sunlit
Object was in daylight at epoch
Visualization orbit readout
Latitude
Unknown
Longitude
Unknown
Altitude
Unknown
Speed
Unknown
Apparent Right ascension
Unknown
Apparent Declination
Unknown
Sunlit
N/A
Visualization observer readout
Local Sidereal Time
21:39:16
Azimuth
Unknown
Elevation
Unknown
Doppler factor
Unknown
Orbital elements
Apogee altitude
35,800.235 km
Perigee altitude
35,777.979 km
Semi-major axis
42,167.244 km
Eccentricity
0.00026
Inclination
0.0424°
RAAN
55.6663°
Arg. of periapsis
60.2°
True anomaly
203.85467°
Mean anomaly
203.8669°
Eccentric anomaly
203.86078°
Mean motion
0.25066 °/min
Orbital period
1,436.22 mins
BSTAR
0
Loading maneuver chart data...
Computing Atmospheric mass density...
Loading historical data...
Loading historical data...
Loading historical data...
Loading historical data...
Loading historical data...
Loading historical data...
Loading historical data...
Other satellites on launch #82 in the year 2016 (2016-12-21 UTC)

Documentation

Showing up to 5 results
|